Bozeman, MT

9:33 AM MDT on September 21, 2017 (GMT -0600)
Gallatin

Weather History for KBZN - April, 2013

Change the Weather History Date:

Monday, April 15, 2013

  Actual Average Record
Temperature  
Mean Temperature 27 °F 45 °F  
Max Temperature 34 °F 59 °F 78 °F (1962)
Min Temperature 20 °F 31 °F 12 °F (1999)
Degree Days  
Heating Degree Days 38 20  
Month to date heating degree days 386 328  
Since 1 July heating degree days 7068 6792  
Cooling Degree Days 0 0  
Month to date cooling degree days 0 0  
Year to date cooling degree days 0 0  
Moisture  
Dew Point 16 °F    
Average Humidity 67    
Maximum Humidity 92    
Minimum Humidity 41    
Precipitation  
Precipitation T in 0.05 in 0.65 in (2008)
Month to date precipitation 0.37 0.74  
Year to date precipitation 0.88 2.59  
Snow  
Snow T in 0.40 in 4.00 in (2015)
Month to date snowfall 0.7 4.4  
Since 1 July snowfall 20.0 34.4  
Snow Depth T in    
Sea Level Pressure  
Sea Level Pressure 29.99 in    
Wind  
Wind Speed 4 mph (WSW)    
Max Wind Speed 16 mph    
Max Gust Speed 20 mph    
Visibility 7 miles    
Events Snow    
T = Trace of Precipitation, MM = Missing Value Source: NWS Daily Summary

Daily Weather History Graph

Daily Weather History Graph

Search for Another Location

Airport or City:

Trip Planner

Search our weather history database for the weather conditions in past years. The results will help you decide how hot, cold, wet, or windy it might be!

Date:

Astronomy

Apr. 15, 2013 Rise Set
Actual Time 6:38 AM MDT 8:11 PM MDT
Civil Twilight 6:07 AM MDT 8:43 PM MDT
Nautical Twilight 5:29 AM MDT 9:20 PM MDT
Astronomical Twilight 4:48 AM MDT 10:01 PM MDT
Moon 9:58 AM MDT (4/15) 12:35 AM MDT (4/15)
Length of Visible Light 14h 35m
Length of Day
13h 33m
Waxing Crescent, 25% of the Moon is Illuminated
Apr 15
Waxing Crescent
Apr 18
First Quarter
Apr 25
Full
May 2
Last Quarter
May 9
New

Hourly Weather History & Observations

Time (MDT) Temp. Windchill Dew Point Humidity Pressure Visibility Wind Dir Wind Speed Gust Speed Precip Events Conditions
12:56 AM 23.0 °F 13.1 °F 12.0 °F 63% 29.96 in 10.0 mi SSW 9.2 mph - N/A   Overcast
1:56 AM 21.0 °F 9.9 °F 14.0 °F 74% 29.95 in 10.0 mi South 10.4 mph - N/A   Overcast
2:56 AM 21.9 °F 13.4 °F 15.1 °F 75% 29.94 in 10.0 mi SSW 6.9 mph - N/A   Overcast
3:56 AM 21.9 °F 17.2 °F 15.1 °F 75% 29.95 in 10.0 mi WSW 3.5 mph - N/A   Overcast
4:56 AM 21.9 °F - 16.0 °F 78% 29.96 in 8.0 mi Calm Calm - 0.00 in Snow Light Snow
5:54 AM 21.2 °F 16.4 °F 17.6 °F 86% 29.87 in 2.5 mi South 3.5 mph - 0.00 in Snow Light Snow
5:56 AM 21.9 °F - 17.1 °F 82% 29.98 in 2.5 mi Calm Calm - 0.00 in Snow Light Snow
6:49 AM 21.2 °F - 17.6 °F 86% 29.88 in 1.2 mi Calm Calm - 0.00 in Snow Light Snow
6:56 AM 21.9 °F - 18.0 °F 85% 29.99 in 1.0 mi Calm Calm - 0.00 in Snow Light Snow
7:13 AM 21.2 °F - 17.6 °F 86% 29.89 in 1.8 mi Calm Calm - 0.00 in Snow Light Snow
7:30 AM 21.2 °F - 17.6 °F 86% 29.89 in 2.0 mi Calm Calm - 0.00 in Snow Light Snow
7:54 AM 21.2 °F - 19.4 °F 93% 29.90 in 2.5 mi Calm Calm - 0.00 in Snow Light Snow
7:56 AM 21.9 °F - 19.0 °F 89% 30.01 in 2.5 mi Calm Calm - 0.00 in Snow Light Snow
8:16 AM 21.2 °F 16.4 °F 17.6 °F 86% 29.90 in 3.0 mi WNW 3.5 mph - 0.00 in Snow Light Snow
8:25 AM 21.2 °F 14.9 °F 17.6 °F 86% 29.90 in 2.5 mi NW 4.6 mph - 0.00 in Snow Light Snow
8:38 AM 23.0 °F 18.4 °F 17.6 °F 80% 29.90 in 3.0 mi WNW 3.5 mph - 0.00 in Snow Light Snow
8:56 AM 23.0 °F - 18.0 °F 81% 30.03 in 3.0 mi Calm Calm - 0.00 in Snow Light Snow
9:53 AM 24.8 °F - 17.6 °F 74% 29.91 in 6.0 mi Calm Calm - 0.00 in   Haze
9:56 AM 24.1 °F 19.7 °F 18.0 °F 77% 30.05 in 6.0 mi Variable 3.5 mph - 0.00 in   Haze
10:39 AM 26.6 °F - 17.6 °F 69% 29.91 in 10.0 mi Calm Calm - N/A   Overcast
10:56 AM 27.0 °F - 17.1 °F 66% 30.03 in 10.0 mi Calm Calm - N/A   Overcast
11:06 AM 26.6 °F 19.1 °F 19.4 °F 74% 29.91 in 10.0 mi WNW 6.9 mph - N/A   Overcast
11:39 AM 26.6 °F - 15.8 °F 64% 29.92 in 10.0 mi Calm Calm - N/A   Overcast
11:56 AM 27.0 °F - 14.0 °F 58% 30.04 in 10.0 mi Calm Calm - N/A   Overcast
12:56 PM 28.0 °F - 16.0 °F 61% 30.04 in 9.0 mi Calm Calm - 0.00 in Snow Light Snow
1:56 PM 30.9 °F 24.3 °F 15.1 °F 52% 30.04 in 10.0 mi South 6.9 mph - 0.00 in   Overcast
2:56 PM 33.8 °F 26.4 °F 15.8 °F 48% 30.03 in 10.0 mi North 9.2 mph - N/A   Overcast
3:56 PM 33.1 °F 30.0 °F 12.9 °F 43% 30.03 in 10.0 mi Variable 3.5 mph - N/A   Overcast
4:56 PM 33.1 °F - 12.0 °F 42% 30.03 in 10.0 mi Calm Calm - N/A   Overcast
5:56 PM 32.0 °F - 12.0 °F 44% 30.05 in 10.0 mi Calm Calm - N/A   Overcast
6:56 PM 30.9 °F 21.7 °F 15.1 °F 52% 30.08 in 8.0 mi ENE 11.5 mph - N/A   Overcast
7:56 PM 28.9 °F 23.9 °F 15.1 °F 56% 30.10 in 5.0 mi Variable 4.6 mph - 0.00 in Snow Light Snow
8:56 PM 28.0 °F 20.0 °F 18.0 °F 66% 30.13 in 10.0 mi West 8.1 mph - 0.00 in   Overcast
9:56 PM 27.0 °F - 16.0 °F 63% 30.16 in 10.0 mi Calm Calm - N/A   Overcast
10:56 PM 26.1 °F - 17.1 °F 69% 30.16 in 10.0 mi Calm Calm - N/A   Overcast
11:56 PM 25.0 °F 14.8 °F 12.0 °F 58% 30.16 in 10.0 mi ENE 10.4 mph - N/A   Scattered Clouds